[TLELIST] Archives

 

[list_settings.list_name] Current TLEs

October 26th 2010 PST

HST 1 20580U 90037B 10297.83699753 .00000726 00000-0 42645-4 0 6664 2 20580 028.4685 113.4139 0003455 142.3129 217.7756 15.01071974924253 ISS (ZARYA) 1 25544U 98067A 10298.48713891 .00020169 00000-0 15445-3 0 1432 2 25544 051.6463 283.9196 0007670 121.4204 019.4331 15.72085747683968 CXO 1 25867U 99040B 10298.62500000 .00000420 00000-0 10000-3 0 5281 2 25867 067.8382 046.6660 8348136 275.5265 357.2379 00.37801677 6884 ____________________________________________________________________ These 2-Line ...Continue Reading

[list_settings.list_name] Current TLEs

October 25th 2010 PST

HST 1 20580U 90037B 10295.77586374 .00000706 00000-0 41123-4 0 6656 2 20580 028.4690 126.8730 0003449 121.5451 238.5599 15.01069578923942 ISS (ZARYA) 1 25544U 98067A 10297.46952723 .00018819 00000-0 14475-3 0 1372 2 25544 051.6462 289.1296 0007512 117.6180 020.2391 15.72038131683805 CXO 1 25867U 99040B 10296.00000000 .00000467 00000-0 10000-3 0 5276 2 25867 067.8242 046.8157 8347161 275.5340 359.8272 00.37806791 6874 ____________________________________________________________________ These 2-Line ...Continue Reading

[list_settings.list_name] Current TLEs

October 24th 2010 PST

HST 1 20580U 90037B 10295.77586374 .00000706 00000-0 41123-4 0 6656 2 20580 028.4690 126.8730 0003449 121.5451 238.5599 15.01069578923942 ISS (ZARYA) 1 25544U 98067A 10296.51689293 .00017465 00000-0 13492-3 0 1303 2 25544 051.6460 294.0087 0007500 114.7219 028.2855 15.71997501683654 CXO 1 25867U 99040B 10296.00000000 .00000467 00000-0 10000-3 0 5276 2 25867 067.8242 046.8157 8347161 275.5340 359.8272 00.37806791 6874 ____________________________________________________________________ These 2-Line ...Continue Reading

[list_settings.list_name] Current TLEs

October 23rd 2010 PST

HST 1 20580U 90037B 10292.98334943 .00000613 00000-0 34019-4 0 6641 2 20580 028.4689 145.1032 0003368 092.2778 267.8229 15.01065959923523 ISS (ZARYA) 1 25544U 98067A 10295.55427203 .00018882 00000-0 14566-3 0 1258 2 25544 051.6466 298.9366 0007477 110.4630 341.2848 15.71965273683501 CXO 1 25867U 99040B 10296.00000000 .00000467 00000-0 10000-3 0 5276 2 25867 067.8242 046.8157 8347161 275.5340 359.8272 00.37806791 6874 ____________________________________________________________________ These 2-Line ...Continue Reading

[list_settings.list_name] Current TLEs

October 21st 2010 PST

HST 1 20580U 90037B 10292.98334943 .00000613 00000-0 34019-4 0 6641 2 20580 028.4689 145.1032 0003368 092.2778 267.8229 15.01065959923523 ISS (ZARYA) 1 25544U 98067A 10293.33434441 .00016492 00000-0 12674-3 0 1099 2 25544 051.6465 310.2967 0007949 113.7932 006.5909 15.72168493683150 CXO 1 25867U 99040B 10293.37500000 .00000469 00000-0 10000-3 0 5269 2 25867 067.8071 046.9804 8346060 275.5143 002.4906 00.37809971 6869 ____________________________________________________________________ These 2-Line ...Continue Reading

[list_settings.list_name] Current TLEs

October 20th 2010 PST

HST 1 20580U 90037B 10291.98602105 .00000609 00000-0 33743-4 0 6635 2 20580 028.4691 151.6133 0003455 080.2749 279.8231 15.01065025923375 ISS (ZARYA) 1 25544U 98067A 10292.31543691 .00014689 00000-0 11361-3 0 1025 2 25544 051.6461 315.5143 0007883 110.2059 359.5273 15.72127128682995 CXO 1 25867U 99040B 10290.70833333 .00000397 00000-0 10000-3 0 5250 2 25867 067.7919 047.1149 8343409 275.4978 359.5104 00.37807650 6850 ____________________________________________________________________ These 2-Line ...Continue Reading

[list_settings.list_name] Current TLEs

October 19th 2010 PST

HST 1 20580U 90037B 10290.98869196 .00000617 00000-0 34300-4 0 6627 2 20580 028.4686 158.1256 0003331 069.8641 290.2312 15.01064117923226 ISS (ZARYA) 1 25544U 98067A 10291.37495370 .00013507 00000-0 10501-3 0 954 2 25544 051.6469 320.3301 0007842 107.1793 076.1919 15.72093416682843 CXO 1 25867U 99040B 10290.70833333 .00000397 00000-0 10000-3 0 5250 2 25867 067.7919 047.1149 8343409 275.4978 359.5104 00.37807650 6850 ____________________________________________________________________ These 2-Line ...Continue Reading

[list_settings.list_name] Current TLEs

October 18th 2010 PST

HST 1 20580U 90037B 10290.05785115 .00000634 00000-0 35632-4 0 6610 2 20580 028.4689 164.2046 0003272 060.4427 299.6510 15.01063415923084 ISS (ZARYA) 1 25544U 98067A 10290.47982841 .00012062 00000-0 94404-4 0 880 2 25544 051.6469 324.9132 0007881 103.4285 050.5685 15.72062780682704 CXO 1 25867U 99040B 10290.70833333 .00000397 00000-0 10000-3 0 5250 2 25867 067.7919 047.1149 8343409 275.4978 359.5104 00.37807650 6850 ____________________________________________________________________ These 2-Line ...Continue Reading

[list_settings.list_name] Current TLEs

October 17th 2010 PST

HST 1 20580U 90037B 10289.06052200 .00000658 00000-0 37449-4 0 6604 2 20580 028.4692 170.7197 0003254 050.2942 309.8008 15.01062701922932 ISS (ZARYA) 1 25544U 98067A 10289.32698569 .00012888 00000-0 10066-3 0 802 2 25544 051.6460 330.8155 0007827 099.8853 005.3559 15.72036014682524 CXO 1 25867U 99040B 10288.08333333 .00000237 00000-0 10000-3 0 5245 2 25867 067.7783 047.2212 8340637 275.4915 002.2026 00.37807004 6849 ____________________________________________________________________ These 2-Line ...Continue Reading

[list_settings.list_name] Current TLEs

October 16th 2010 PST

HST 1 20580U 90037B 10286.13501496 .00000638 00000-0 35907-4 0 6598 2 20580 028.4688 189.8229 0003208 020.5896 339.4857 15.01059772922497 ISS (ZARYA) 1 25544U 98067A 10288.36645899 .00013856 00000-0 10797-3 0 732 2 25544 051.6469 335.7353 0008010 096.3709 329.3259 15.72011416682372 CXO 1 25867U 99040B 10288.08333333 .00000237 00000-0 10000-3 0 5245 2 25867 067.7783 047.2212 8340637 275.4915 002.2026 00.37807004 6849 ____________________________________________________________________ These 2-Line ...Continue Reading
  • This mailing list is a public mailing list - anyone may join or leave, at any time.
  • This mailing list is announce-only.

International Space Station (ISS) / Hubble Space Telescope (HST) / Chandra X-Ray Observatory Orbital Data via EMAIL

Privacy Policy:

Private list